Time,TemperatureF,DewpointF,PressureIn,WindDirection,WindDirectionDegrees,WindSpeedMPH,WindSpeedGustMPH,Humidity,HourlyPrecipIn,Conditions,Clouds,dailyrainin,SoftwareType,DateUTC
2013-02-03 00:00:00,35.7,28.6,30.20,NNW,338,13.0,13.0,75,0.00,,,0.00,Wunderground v.1.15,2013-02-03 06:00:00,
2013-02-03 00:10:00,35.5,28.0,30.21,NW,312,14.0,15.0,74,0.00,,,0.00,Wunderground v.1.15,2013-02-03 06:10:00,
2013-02-03 00:15:00,35.4,27.6,30.21,NW,311,15.0,15.0,73,0.00,,,0.00,Wunderground v.1.15,2013-02-03 06:15:00,
2013-02-03 00:25:00,34.7,27.6,30.21,NNW,347,11.0,13.0,75,0.00,,,0.00,Wunderground v.1.15,2013-02-03 06:25:00,
2013-02-03 00:30:00,34.3,27.5,30.21,NNW,347,11.0,11.0,76,0.00,,,0.00,Wunderground v.1.15,2013-02-03 06:30:00,
2013-02-03 00:40:00,34.1,27.3,30.21,NNW,341,13.0,13.0,76,0.00,,,0.00,Wunderground v.1.15,2013-02-03 06:40:00,
2013-02-03 00:50:00,34.1,27.0,30.21,NNW,327,13.0,13.0,75,0.00,,,0.00,Wunderground v.1.15,2013-02-03 06:50:00,
2013-02-03 01:00:00,33.5,26.7,30.22,NNW,333,11.0,11.0,76,0.00,,,0.00,Wunderground v.1.15,2013-02-03 07:00:00,
2013-02-03 01:10:00,33.2,26.8,30.22,NNW,345,9.0,9.0,77,0.00,,,0.00,Wunderground v.1.15,2013-02-03 07:10:00,
2013-02-03 01:15:00,33.1,26.7,30.22,NW,314,8.0,9.0,77,0.00,,,0.00,Wunderground v.1.15,2013-02-03 07:15:00,
2013-02-03 01:25:00,32.2,26.4,30.22,NW,322,5.0,10.0,79,0.00,,,0.00,Wunderground v.1.15,2013-02-03 07:25:00,
2013-02-03 01:35:00,31.7,26.2,30.24,NW,308,6.0,9.0,80,0.00,,,0.00,Wunderground v.1.15,2013-02-03 07:35:00,
2013-02-03 01:45:00,31.7,26.2,30.25,NNE,16,8.0,10.0,80,0.00,,,0.00,Wunderground v.1.15,2013-02-03 07:45:00,
2013-02-03 01:55:00,31.5,26.0,30.25,NNW,337,9.0,9.0,80,0.00,,,0.00,Wunderground v.1.15,2013-02-03 07:55:00,
2013-02-03 02:00:00,31.2,26.0,30.25,NW,326,8.0,9.0,81,0.00,,,0.00,Wunderground v.1.15,2013-02-03 08:00:00,
2013-02-03 02:05:00,31.0,25.6,30.25,NNW,342,9.0,9.0,80,0.00,,,0.00,Wunderground v.1.15,2013-02-03 08:05:00,
2013-02-03 02:15:00,31.1,24.4,30.26,NNW,343,11.0,13.0,76,0.00,,,0.00,Wunderground v.1.15,2013-02-03 08:15:00,
2013-02-03 02:25:00,30.8,24.1,30.25,North,11,11.0,14.0,76,0.00,,,0.00,Wunderground v.1.15,2013-02-03 08:25:00,
2013-02-03 02:35:00,30.3,24.0,30.26,NW,319,10.0,12.0,77,0.00,,,0.00,Wunderground v.1.15,2013-02-03 08:35:00,
2013-02-03 02:45:00,30.1,24.1,30.25,NW,319,9.0,13.0,78,0.00,,,0.00,Wunderground v.1.15,2013-02-03 08:45:00,
2013-02-03 02:55:00,29.7,24.0,30.25,NNW,344,8.0,9.0,79,0.00,,,0.00,Wunderground v.1.15,2013-02-03 08:55:00,
2013-02-03 03:00:00,29.4,24.0,30.25,NNW,337,7.0,7.0,80,0.00,,,0.00,Wunderground v.1.15,2013-02-03 09:00:00,
2013-02-03 03:10:00,28.9,23.5,30.25,NNW,332,6.0,6.0,80,0.00,,,0.00,Wunderground v.1.15,2013-02-03 09:10:00,
2013-02-03 03:20:00,28.8,23.7,30.24,NNW,330,6.0,6.0,81,0.00,,,0.00,Wunderground v.1.15,2013-02-03 09:20:00,
2013-02-03 03:30:00,28.7,23.3,30.24,North,357,6.0,7.0,80,0.00,,,0.00,Wunderground v.1.15,2013-02-03 09:30:00,
2013-02-03 03:40:00,28.5,22.8,30.25,NW,321,5.0,5.0,79,0.00,,,0.00,Wunderground v.1.15,2013-02-03 09:40:00,
2013-02-03 03:50:00,28.1,22.4,30.25,NW,320,5.0,7.0,79,0.00,,,0.00,Wunderground v.1.15,2013-02-03 09:50:00,
2013-02-03 04:00:00,27.7,22.0,30.25,NW,325,5.0,7.0,79,0.00,,,0.00,Wunderground v.1.15,2013-02-03 10:00:00,
2013-02-03 04:10:00,27.8,21.5,30.25,NNW,344,7.0,7.0,77,0.00,,,0.00,Wunderground v.1.15,2013-02-03 10:10:00,
2013-02-03 04:20:00,27.8,20.9,30.25,NNW,327,7.0,7.0,75,0.00,,,0.00,Wunderground v.1.15,2013-02-03 10:20:00,
2013-02-03 04:30:00,27.4,20.5,30.25,NNW,344,8.0,8.0,75,0.00,,,0.00,Wunderground v.1.15,2013-02-03 10:30:00,
2013-02-03 04:40:00,26.8,20.2,30.25,WNW,285,4.0,4.0,76,0.00,,,0.00,Wunderground v.1.15,2013-02-03 10:40:00,
2013-02-03 04:50:00,26.1,20.5,30.26,NW,319,2.0,2.0,79,0.00,,,0.00,Wunderground v.1.15,2013-02-03 10:50:00,
2013-02-03 05:00:00,25.4,20.7,30.26,NNW,332,1.0,4.0,82,0.00,,,0.00,Wunderground v.1.15,2013-02-03 11:00:00,
2013-02-03 05:10:00,24.9,20.2,30.26,NNW,332,4.0,4.0,82,0.00,,,0.00,Wunderground v.1.15,2013-02-03 11:10:00,
2013-02-03 05:15:00,24.8,20.1,30.26,NNW,334,3.0,4.0,82,0.00,,,0.00,Wunderground v.1.15,2013-02-03 11:15:00,
2013-02-03 05:25:00,24.4,19.4,30.25,NNW,339,2.0,2.0,81,0.00,,,0.00,Wunderground v.1.15,2013-02-03 11:25:00,
2013-02-03 05:35:00,24.0,19.0,30.25,North,349,2.0,4.0,81,0.00,,,0.00,Wunderground v.1.15,2013-02-03 11:35:00,
2013-02-03 05:50:00,23.4,18.4,30.24,NNW,335,3.0,4.0,81,0.00,,,0.00,Wunderground v.1.15,2013-02-03 11:50:00,
2013-02-03 05:55:00,23.5,18.2,30.24,NW,315,3.0,4.0,80,0.00,,,0.00,Wunderground v.1.15,2013-02-03 11:55:00,
2013-02-03 06:00:00,23.8,18.2,30.25,WNW,300,2.0,2.0,79,0.00,,,0.00,Wunderground v.1.15,2013-02-03 12:00:00,
2013-02-03 06:10:00,23.6,17.7,30.25,NW,316,2.0,2.0,78,0.00,,,0.00,Wunderground v.1.15,2013-02-03 12:10:00,
2013-02-03 06:20:00,23.2,17.7,30.25,NW,307,1.0,1.0,79,0.00,,,0.00,Wunderground v.1.15,2013-02-03 12:20:00,
2013-02-03 06:25:00,22.8,17.3,30.26,North,354,1.0,1.0,79,0.00,,,0.00,Wunderground v.1.15,2013-02-03 12:25:00,
2013-02-03 06:35:00,22.3,16.8,30.26,WNW,293,1.0,2.0,79,0.00,,,0.00,Wunderground v.1.15,2013-02-03 12:35:00,
2013-02-03 06:45:00,21.6,16.7,30.26,West,276,2.0,2.0,81,0.00,,,0.00,Wunderground v.1.15,2013-02-03 12:45:00,
2013-02-03 06:55:00,21.1,16.2,30.25,West,262,1.0,2.0,81,0.00,,,0.00,Wunderground v.1.15,2013-02-03 12:55:00,
2013-02-03 07:00:00,20.7,16.1,30.25,West,262,0.0,0.0,82,0.00,,,0.00,Wunderground v.1.15,2013-02-03 13:00:00,
2013-02-03 07:10:00,20.7,16.4,30.25,West,262,0.0,0.0,83,0.00,,,0.00,Wunderground v.1.15,2013-02-03 13:10:00,
2013-02-03 07:20:00,20.7,16.4,30.26,WNW,287,1.0,1.0,83,0.00,,,0.00,Wunderground v.1.15,2013-02-03 13:20:00,
2013-02-03 07:30:00,21.0,16.6,30.26,West,280,1.0,1.0,83,0.00,,,0.00,Wunderground v.1.15,2013-02-03 13:30:00,
2013-02-03 07:40:00,21.3,17.2,30.26,WNW,292,1.0,1.0,84,0.00,,,0.00,Wunderground v.1.15,2013-02-03 13:40:00,
2013-02-03 07:50:00,20.6,16.0,30.27,WSW,244,1.0,1.0,82,0.00,,,0.00,Wunderground v.1.15,2013-02-03 13:50:00,
2013-02-03 08:00:00,20.2,16.1,30.26,WSW,257,1.0,2.0,84,0.00,,,0.00,Wunderground v.1.15,2013-02-03 14:00:00,
2013-02-03 08:10:00,20.4,16.9,30.26,WSW,250,2.0,2.0,86,0.00,,,0.00,Wunderground v.1.15,2013-02-03 14:10:00,
2013-02-03 08:15:00,20.9,17.4,30.26,WSW,248,2.0,2.0,86,0.00,,,0.00,Wunderground v.1.15,2013-02-03 14:15:00,
2013-02-03 08:25:00,22.1,18.6,30.26,SW,214,1.0,2.0,86,0.00,,,0.00,Wunderground v.1.15,2013-02-03 14:25:00,
2013-02-03 08:35:00,23.5,19.9,30.25,SW,225,2.0,2.0,86,0.00,,,0.00,Wunderground v.1.15,2013-02-03 14:35:00,
2013-02-03 08:45:00,24.6,20.5,30.25,WSW,238,1.0,2.0,84,0.00,,,0.00,Wunderground v.1.15,2013-02-03 14:45:00,
2013-02-03 08:55:00,25.5,21.3,30.25,SW,215,2.0,2.0,84,0.00,,,0.00,Wunderground v.1.15,2013-02-03 14:55:00,
2013-02-03 09:00:00,26.1,21.9,30.25,SW,215,2.0,3.0,84,0.00,,,0.00,Wunderground v.1.15,2013-02-03 15:00:00,
2013-02-03 09:10:00,27.3,23.1,30.24,South,172,2.0,2.0,84,0.00,,,0.00,Wunderground v.1.15,2013-02-03 15:10:00,
2013-02-03 09:15:00,28.1,23.6,30.24,SSE,166,2.0,2.0,83,0.00,,,0.00,Wunderground v.1.15,2013-02-03 15:15:00,
2013-02-03 09:25:00,29.3,24.2,30.23,South,169,2.0,4.0,81,0.00,,,0.00,Wunderground v.1.15,2013-02-03 15:25:00,
2013-02-03 09:35:00,29.5,24.4,30.22,SW,221,5.0,5.0,81,0.00,,,0.00,Wunderground v.1.15,2013-02-03 15:35:00,
2013-02-03 09:45:00,29.7,24.9,30.21,SSW,203,6.0,6.0,82,0.00,,,0.00,Wunderground v.1.15,2013-02-03 15:45:00,
2013-02-03 09:55:00,30.4,25.3,30.21,SW,219,7.0,7.0,81,0.00,,,0.00,Wunderground v.1.15,2013-02-03 15:55:00,
2013-02-03 10:00:00,30.6,25.8,30.21,SSW,208,7.0,7.0,82,0.00,,,0.00,Wunderground v.1.15,2013-02-03 16:00:00,
2013-02-03 10:10:00,31.0,26.1,30.20,SSW,203,7.0,7.0,82,0.00,,,0.00,Wunderground v.1.15,2013-02-03 16:10:00,
2013-02-03 10:20:00,31.5,26.0,30.20,SSE,165,7.0,7.0,80,0.00,,,0.00,Wunderground v.1.15,2013-02-03 16:20:00,
2013-02-03 10:30:00,32.1,26.6,30.19,SSW,197,7.0,7.0,80,0.00,,,0.00,Wunderground v.1.15,2013-02-03 16:30:00,
2013-02-03 10:40:00,32.5,27.0,30.19,SW,225,6.0,6.0,80,0.00,,,0.00,Wunderground v.1.15,2013-02-03 16:40:00,
2013-02-03 10:50:00,32.9,27.1,30.18,SSW,203,8.0,9.0,79,0.00,,,0.00,Wunderground v.1.15,2013-02-03 16:50:00,
2013-02-03 11:00:00,33.4,27.3,30.18,SW,215,8.0,8.0,78,0.00,,,0.00,Wunderground v.1.15,2013-02-03 17:00:00,
2013-02-03 11:10:00,33.9,27.8,30.17,SW,215,8.0,8.0,78,0.00,,,0.00,Wunderground v.1.15,2013-02-03 17:10:00,
2013-02-03 11:15:00,34.2,27.7,30.17,SSW,212,9.0,9.0,77,0.00,,,0.00,Wunderground v.1.15,2013-02-03 17:15:00,
2013-02-03 11:25:00,34.7,27.9,30.16,SSW,204,9.0,11.0,76,0.00,,,0.00,Wunderground v.1.15,2013-02-03 17:25:00,
2013-02-03 11:30:00,35.1,27.3,30.16,SSW,205,10.0,11.0,73,0.00,,,0.00,Wunderground v.1.15,2013-02-03 17:30:00,
2013-02-03 11:40:00,35.5,25.6,30.15,SSW,210,11.0,12.0,67,0.00,,,0.00,Wunderground v.1.15,2013-02-03 17:40:00,
2013-02-03 11:50:00,35.8,24.0,30.15,SSW,208,12.0,12.0,62,0.00,,,0.00,Wunderground v.1.15,2013-02-03 17:50:00,
2013-02-03 12:00:00,36.6,25.9,30.14,SW,232,10.0,11.0,65,0.00,,,0.00,Wunderground v.1.15,2013-02-03 18:00:00,
2013-02-03 12:10:00,36.9,25.1,30.14,South,183,12.0,12.0,62,0.00,,,0.00,Wunderground v.1.15,2013-02-03 18:10:00,
2013-02-03 12:15:00,37.1,25.7,30.13,SSW,200,12.0,12.0,63,0.00,,,0.00,Wunderground v.1.15,2013-02-03 18:15:00,
2013-02-03 12:25:00,37.5,26.8,30.12,SSW,207,12.0,13.0,65,0.00,,,0.00,Wunderground v.1.15,2013-02-03 18:25:00,
2013-02-03 12:35:00,37.9,26.8,30.11,SSW,204,11.0,11.0,64,0.00,,,0.00,Wunderground v.1.15,2013-02-03 18:35:00,
2013-02-03 12:45:00,38.2,26.3,30.11,SW,229,12.0,13.0,62,0.00,,,0.00,Wunderground v.1.15,2013-02-03 18:45:00,
2013-02-03 12:55:00,38.6,26.7,30.10,South,173,12.0,13.0,62,0.00,,,0.00,Wunderground v.1.15,2013-02-03 18:55:00,
2013-02-03 13:00:00,38.9,27.0,30.10,SW,221,12.0,13.0,62,0.00,,,0.00,Wunderground v.1.15,2013-02-03 19:00:00,
2013-02-03 13:05:00,39.1,26.8,30.09,SSW,212,12.0,13.0,61,0.00,,,0.00,Wunderground v.1.15,2013-02-03 19:05:00,
2013-02-03 13:15:00,39.3,27.0,30.09,SSW,197,12.0,13.0,61,0.00,,,0.00,Wunderground v.1.15,2013-02-03 19:15:00,
2013-02-03 13:25:00,39.5,27.2,30.08,SW,215,13.0,15.0,61,0.00,,,0.00,Wunderground v.1.15,2013-02-03 19:25:00,
2013-02-03 13:35:00,39.9,26.7,30.08,SW,214,12.0,14.0,59,0.00,,,0.00,Wunderground v.1.15,2013-02-03 19:35:00,
2013-02-03 13:45:00,40.3,27.1,30.07,SW,217,12.0,17.0,59,0.00,,,0.00,Wunderground v.1.15,2013-02-03 19:45:00,
2013-02-03 13:55:00,40.5,28.1,30.06,SW,219,11.0,15.0,61,0.00,,,0.00,Wunderground v.1.15,2013-02-03 19:55:00,
2013-02-03 14:00:00,40.4,27.6,30.06,SSW,203,12.0,14.0,60,0.00,,,0.00,Wunderground v.1.15,2013-02-03 20:00:00,
2013-02-03 14:10:00,40.4,28.4,30.05,SSW,207,13.0,13.0,62,0.00,,,0.00,Wunderground v.1.15,2013-02-03 20:10:00,
2013-02-03 14:20:00,40.7,29.5,30.04,SSW,203,12.0,12.0,64,0.00,,,0.00,Wunderground v.1.15,2013-02-03 20:20:00,
2013-02-03 14:30:00,41.0,29.4,30.03,SW,217,12.0,15.0,63,0.00,,,0.00,Wunderground v.1.15,2013-02-03 20:30:00,
2013-02-03 14:40:00,41.3,30.4,30.02,SW,219,12.0,12.0,65,0.00,,,0.00,Wunderground v.1.15,2013-02-03 20:40:00,
2013-02-03 14:50:00,41.4,30.5,30.02,SW,217,12.0,13.0,65,0.00,,,0.00,Wunderground v.1.15,2013-02-03 20:50:00,
2013-02-03 15:00:00,41.6,30.3,30.01,SW,215,12.0,12.0,64,0.00,,,0.00,Wunderground v.1.15,2013-02-03 21:00:00,
2013-02-03 15:10:00,42.1,31.2,30.00,SSW,207,11.0,13.0,65,0.00,,,0.00,Wunderground v.1.15,2013-02-03 21:10:00,
2013-02-03 15:15:00,42.3,31.4,30.00,SW,215,11.0,13.0,65,0.00,,,0.00,Wunderground v.1.15,2013-02-03 21:15:00,
2013-02-03 15:25:00,42.5,31.2,29.99,SSW,205,12.0,15.0,64,0.00,,,0.00,Wunderground v.1.15,2013-02-03 21:25:00,
2013-02-03 15:35:00,42.6,30.5,29.98,SSW,205,12.0,15.0,62,0.00,,,0.00,Wunderground v.1.15,2013-02-03 21:35:00,
2013-02-03 15:45:00,42.6,30.9,29.98,SSW,212,11.0,12.0,63,0.00,,,0.00,Wunderground v.1.15,2013-02-03 21:45:00,
2013-02-03 15:55:00,42.3,31.4,29.97,SSW,200,11.0,11.0,65,0.00,,,0.00,Wunderground v.1.15,2013-02-03 21:55:00,
2013-02-03 16:00:00,42.1,31.2,29.97,SSW,198,10.0,13.0,65,0.00,,,0.00,Wunderground v.1.15,2013-02-03 22:00:00,
2013-02-03 16:10:00,42.0,31.8,29.96,SW,229,9.0,12.0,67,0.00,,,0.00,Wunderground v.1.15,2013-02-03 22:10:00,
2013-02-03 16:20:00,41.5,32.1,29.95,SSW,195,9.0,9.0,69,0.00,,,0.00,Wunderground v.1.15,2013-02-03 22:20:00,
2013-02-03 16:30:00,41.1,32.1,29.95,SSW,210,9.0,10.0,70,0.00,,,0.00,Wunderground v.1.15,2013-02-03 22:30:00,
2013-02-03 16:40:00,40.6,31.9,29.94,SSW,211,9.0,9.0,71,0.00,,,0.00,Wunderground v.1.15,2013-02-03 22:40:00,
2013-02-03 16:50:00,40.2,31.9,29.94,SW,215,8.0,10.0,72,0.00,,,0.00,Wunderground v.1.15,2013-02-03 22:50:00,
2013-02-03 17:00:00,39.8,31.8,29.93,SW,217,9.0,11.0,73,0.00,,,0.00,Wunderground v.1.15,2013-02-03 23:00:00,
2013-02-03 17:10:00,39.4,31.8,29.93,SW,228,9.0,11.0,74,0.00,,,0.00,Wunderground v.1.15,2013-02-03 23:10:00,
2013-02-03 17:20:00,39.4,31.5,29.92,South,189,9.0,9.0,73,0.00,,,0.00,Wunderground v.1.15,2013-02-03 23:20:00,
2013-02-03 17:30:00,39.2,31.6,29.92,South,186,9.0,9.0,74,0.00,,,0.00,Wunderground v.1.15,2013-02-03 23:30:00,
2013-02-03 17:40:00,38.7,31.1,29.92,SSW,207,8.0,8.0,74,0.00,,,0.00,Wunderground v.1.15,2013-02-03 23:40:00,
2013-02-03 17:50:00,37.5,30.9,29.92,SW,217,7.0,7.0,77,0.00,,,0.00,Wunderground v.1.15,2013-02-03 23:50:00,
2013-02-03 18:00:00,36.6,30.7,29.92,SSW,201,7.0,7.0,79,0.00,,,0.00,Wunderground v.1.15,2013-02-04 00:00:00,
2013-02-03 18:10:00,36.3,30.7,29.92,SSW,208,5.0,5.0,80,0.00,,,0.00,Wunderground v.1.15,2013-02-04 00:10:00,
2013-02-03 18:15:00,36.1,30.5,29.92,SSW,201,4.0,5.0,80,0.00,,,0.00,Wunderground v.1.15,2013-02-04 00:15:00,
2013-02-03 18:25:00,36.2,30.6,29.92,SSW,205,5.0,6.0,80,0.00,,,0.00,Wunderground v.1.15,2013-02-04 00:25:00,
2013-02-03 18:35:00,36.5,30.6,29.92,SSW,210,5.0,7.0,79,0.00,,,0.00,Wunderground v.1.15,2013-02-04 00:35:00,
2013-02-03 18:45:00,36.9,31.0,29.91,SSW,212,6.0,6.0,79,0.00,,,0.00,Wunderground v.1.15,2013-02-04 00:45:00,
2013-02-03 18:50:00,37.0,31.1,29.91,SW,214,6.0,8.0,79,0.00,,,0.00,Wunderground v.1.15,2013-02-04 00:50:00,
2013-02-03 19:00:00,37.4,31.2,29.91,SW,222,7.0,8.0,78,0.00,,,0.00,Wunderground v.1.15,2013-02-04 01:00:00,
2013-02-03 19:10:00,37.2,31.0,29.91,SW,217,5.0,5.0,78,0.00,,,0.00,Wunderground v.1.15,2013-02-04 01:10:00,
2013-02-03 19:15:00,37.0,31.1,29.91,SW,225,5.0,6.0,79,0.00,,,0.00,Wunderground v.1.15,2013-02-04 01:15:00,
2013-02-03 19:25:00,36.6,31.0,29.91,South,191,4.0,4.0,80,0.00,,,0.00,Wunderground v.1.15,2013-02-04 01:25:00,
2013-02-03 19:35:00,36.1,30.8,29.91,SSW,212,4.0,4.0,81,0.00,,,0.00,Wunderground v.1.15,2013-02-04 01:35:00,
2013-02-03 19:45:00,36.1,30.5,29.91,SW,221,1.0,3.0,80,0.00,,,0.00,Wunderground v.1.15,2013-02-04 01:45:00,
2013-02-03 19:55:00,35.7,30.4,29.90,East,101,0.0,1.0,81,0.00,,,0.00,Wunderground v.1.15,2013-02-04 01:55:00,
2013-02-03 20:00:00,35.2,30.0,29.90,SE,145,1.0,2.0,81,0.00,,,0.00,Wunderground v.1.15,2013-02-04 02:00:00,
2013-02-03 20:05:00,34.7,29.8,29.89,SSE,159,2.0,2.0,82,0.00,,,0.00,Wunderground v.1.15,2013-02-04 02:05:00,
2013-02-03 20:15:00,34.0,29.7,29.89,SSE,167,2.0,2.0,84,0.00,,,0.00,Wunderground v.1.15,2013-02-04 02:15:00,
2013-02-03 20:25:00,33.4,29.4,29.89,SSE,159,1.0,1.0,85,0.00,,,0.00,Wunderground v.1.15,2013-02-04 02:25:00,
2013-02-03 20:35:00,33.1,29.4,29.88,South,169,3.0,4.0,86,0.00,,,0.00,Wunderground v.1.15,2013-02-04 02:35:00,
2013-02-03 20:45:00,33.1,29.9,29.88,South,191,4.0,4.0,88,0.00,,,0.00,Wunderground v.1.15,2013-02-04 02:45:00,
2013-02-03 20:55:00,33.5,30.0,29.87,SSE,162,2.0,3.0,87,0.00,,,0.00,Wunderground v.1.15,2013-02-04 02:55:00,
2013-02-03 21:00:00,33.5,30.0,29.87,SSE,154,1.0,2.0,87,0.00,,,0.00,Wunderground v.1.15,2013-02-04 03:00:00,
2013-02-03 21:05:00,33.7,30.2,29.87,SE,145,2.0,2.0,87,0.00,,,0.00,Wunderground v.1.15,2013-02-04 03:05:00,
2013-02-03 21:15:00,33.8,30.3,29.87,SSE,153,2.0,3.0,87,0.00,,,0.00,Wunderground v.1.15,2013-02-04 03:15:00,
2013-02-03 21:25:00,33.7,30.2,29.86,South,190,3.0,3.0,87,0.00,,,0.00,Wunderground v.1.15,2013-02-04 03:25:00,
2013-02-03 21:35:00,33.0,29.6,29.86,South,176,3.0,3.0,87,0.00,,,0.00,Wunderground v.1.15,2013-02-04 03:35:00,
2013-02-03 21:45:00,33.4,30.8,29.86,SW,224,3.0,5.0,90,0.00,,,0.00,Wunderground v.1.15,2013-02-04 03:45:00,
2013-02-03 21:55:00,35.0,31.2,29.86,SSW,193,4.0,6.0,86,0.00,,,0.00,Wunderground v.1.15,2013-02-04 03:55:00,
2013-02-03 22:00:00,35.1,31.0,29.85,SSW,195,4.0,4.0,85,0.00,,,0.00,Wunderground v.1.15,2013-02-04 04:00:00,
2013-02-03 22:10:00,35.1,30.8,29.85,SSE,162,3.0,3.0,84,0.00,,,0.00,Wunderground v.1.15,2013-02-04 04:10:00,
2013-02-03 22:20:00,34.6,30.6,29.84,SW,215,4.0,6.0,85,0.00,,,0.00,Wunderground v.1.15,2013-02-04 04:20:00,
2013-02-03 22:30:00,35.1,31.0,29.84,SW,231,4.0,7.0,85,0.00,,,0.00,Wunderground v.1.15,2013-02-04 04:30:00,
2013-02-03 22:40:00,36.1,31.4,29.84,SW,232,5.0,8.0,83,0.00,,,0.00,Wunderground v.1.15,2013-02-04 04:40:00,
2013-02-03 22:50:00,36.8,31.5,29.83,SW,231,6.0,7.0,81,0.00,,,0.00,Wunderground v.1.15,2013-02-04 04:50:00,
2013-02-03 23:05:00,37.4,31.8,29.83,SW,226,5.0,6.0,80,0.00,,,0.00,Wunderground v.1.15,2013-02-04 05:05:00,
2013-02-03 23:10:00,37.5,31.6,29.82,SW,226,5.0,5.0,79,0.00,,,0.00,Wunderground v.1.15,2013-02-04 05:10:00,
2013-02-03 23:15:00,37.5,31.6,29.82,WSW,249,6.0,6.0,79,0.00,,,0.00,Wunderground v.1.15,2013-02-04 05:15:00,
2013-02-03 23:20:00,37.3,31.4,29.82,WNW,288,5.0,5.0,79,0.00,,,0.00,Wunderground v.1.15,2013-02-04 05:20:00,
2013-02-03 23:25:00,36.8,31.2,29.82,West,273,2.0,5.0,80,0.00,,,0.00,Wunderground v.1.15,2013-02-04 05:25:00,
2013-02-03 23:30:00,36.4,31.1,29.82,West,259,1.0,1.0,81,0.00,,,0.00,Wunderground v.1.15,2013-02-04 05:30:00,
2013-02-03 23:40:00,35.9,30.9,29.82,WSW,256,1.0,1.0,82,0.00,,,0.00,Wunderground v.1.15,2013-02-04 05:40:00,
2013-02-03 23:50:00,35.7,30.7,29.82,West,266,1.0,1.0,82,0.00,,,0.00,Wunderground v.1.15,2013-02-04 05:50:00,